Weather in Wiener Neustadt

Austria     47°48′10″N   16°13′59″E
temp.,
°C
wind,
m/s
gust,
m/s
humid.,
%
clouds,
%
prec.,
mm/h
press.,
hPa
HPBL,
m
12 may, wed
wed1223:00+16ssw337197 0.0 100760
02:00+14nw117097 0.0 100635
05:00+12wsw119579 1.1 100716
08:00+14nnw239387 1.8 1007226
11:00+13wnw1391100 2.6 1007297
14:00+11nnw2494100 6.9 1008380
17:00+12nw2687100 0.5 1007410
20:00+12wnw397884 0.5 1006443
13 may, thu
thu1323:00+11w387999 0.0 1006407
02:00+11w2778100 0.0 1005399
05:00+10w2882100 0.3 1004454
08:00+9wsw2792100 1.4 1005405
11:00+10w3688100 0.5 1005567
14:00+11wnw3878100 0.6 10051096
17:00+11w2674100 0.0 1005914
20:00+11w2574100 0.0 1006457
14 may, fri
fri1423:00+10s1178100 0.0 100748
02:00+10wsw1275100 0.0 100755
05:00+9w1276100 0.0 100746
08:00+11wnw2569100 0.0 1008396
11:00+16nnw2249100 0.0 10081401
14:00+14se2365100 0.3 1008634
17:00+12sw1180100 0.4 100848
20:00+11w2390100 0.9 100993
15 may, sat
sat1523:00+9wsw1186100 0.1 101014
02:00+7wsw219030 0.2 101014
05:00+7wsw219093 0.1 101022
08:00+11n1275100 0.1 1010262
11:00+12nne2371100 0.0 1010604
14:00+15n2359100 0.0 10091047
17:00+16nne3255100 0.0 10081312
20:00+12nw237397 0.0 1009101
16 may, sun
sun1623:00+10w228388 0.1 101064
02:00+10w2286100 0.3 101065
05:00+10w118690 0.0 101036
08:00+12nw246984 0.0 1010355
11:00+17n444694 0.1 10101989
14:00+17nw344264 0.1 10091858
17:00+17nnw454487 0.0 10081534
20:00+13nw38605 0.0 1009288